Laconia, NH

12:20 AM EST on November 22, 2019 (GMT -0500)
Laconia Municipal

Weather History for KLCI - September, 2019

Change the Weather History Date:

Monday, September 9, 2019

  Actual Average Record
Temperature  
Mean Temperature 56 °F -  
Max Temperature 69 °F 72 °F 95 °F (2002)
Min Temperature 46 °F 52 °F 41 °F (2013)
Degree Days  
Heating Degree Days 9    
Growing Degree Days 6 (Base 50)    
Moisture  
Dew Point 49 °F    
Average Humidity 81    
Maximum Humidity 100    
Minimum Humidity 47    
Precipitation  
Precipitation 0.00 in - - ()
Sea Level Pressure  
Sea Level Pressure 30.28 in    
Wind  
Wind Speed 3 mph ()    
Max Wind Speed 7 mph    
Max Gust Speed -    
Visibility 9.7 miles    
Events      
Averages and records for this station are not official NWS values.
T = Trace of Precipitation, MM = Missing Value Source: Averaged Metar Reports

Daily Weather History Graph

Daily Weather History Graph

Search for Another Location

Airport or City:

Astronomy

Sep. 09, 2019 Rise Set
Actual Time 6:18 AM EDT 7:07 PM EDT
Civil Twilight 5:49 AM EDT 7:36 PM EDT
Nautical Twilight 5:14 AM EDT 8:10 PM EDT
Astronomical Twilight 4:38 AM EDT 8:46 PM EDT
Moon 5:08 PM EDT (9/9) 1:37 AM EDT (9/9)
Length of Visible Light 13h 47m
Length of Day
12h 49m
Waxing Gibbous, 83% of the Moon is Illuminated
Sep 9
Waxing Gibbous
Sep 14
Full
Sep 21
Last Quarter
Sep 28
New
Oct 5
First Quarter

Hourly Weather History & Observations

Time (EDT) Temp. Dew Point Humidity Pressure Visibility Wind Dir Wind Speed Gust Speed Precip Events Conditions
12:56 AM 50.0 °F 48.0 °F 93% 30.21 in 10.0 mi Calm Calm - N/A   Clear
1:56 AM 46.9 °F 46.9 °F 100% 30.21 in 10.0 mi ENE 3.5 mph - N/A   Clear
2:56 AM 46.9 °F 46.0 °F 97% 30.22 in 10.0 mi Calm Calm - N/A   Clear
3:56 AM 48.0 °F 46.9 °F 96% 30.22 in 10.0 mi Calm Calm - N/A   Clear
4:51 AM 48.2 °F 46.4 °F 93% 30.23 in 10.0 mi West 4.6 mph - N/A   Partly Cloudy
4:56 AM 48.9 °F 48.9 °F 100% 30.24 in 10.0 mi WSW 6.9 mph - N/A   Partly Cloudy
5:03 AM 48.2 °F 48.2 °F 100% 30.24 in 2.0 mi SW 5.8 mph - N/A   Mostly Cloudy
5:22 AM 48.2 °F 48.2 °F 100% 30.24 in 10.0 mi SW 5.8 mph - N/A   Overcast
5:56 AM 48.9 °F 48.0 °F 97% 30.26 in 10.0 mi SW 3.5 mph - N/A   Overcast
6:56 AM 48.0 °F 46.9 °F 96% 30.28 in 10.0 mi Calm Calm - N/A   Overcast
7:34 AM 51.8 °F 51.8 °F 100% 30.28 in 10.0 mi WSW 3.5 mph - N/A   Overcast
7:56 AM 52.0 °F 51.1 °F 97% 30.30 in 10.0 mi SW 3.5 mph - N/A   Overcast
8:56 AM 55.9 °F 51.1 °F 84% 30.31 in 10.0 mi West 4.6 mph - N/A   Overcast
9:56 AM 59.0 °F 51.1 °F 75% 30.32 in 10.0 mi Variable 3.5 mph - N/A   Mostly Cloudy
10:56 AM 64.0 °F 48.9 °F 58% 30.31 in 10.0 mi Variable 3.5 mph - N/A   Clear
11:56 AM 64.0 °F 48.0 °F 56% 30.30 in 10.0 mi Variable 5.8 mph - N/A   Overcast
12:56 PM 66.0 °F 46.0 °F 48% 30.29 in 10.0 mi SW 4.6 mph - N/A   Scattered Clouds
1:56 PM 66.0 °F 45.0 °F 47% 30.28 in 10.0 mi Variable 3.5 mph - N/A   Scattered Clouds
2:56 PM 66.0 °F 48.0 °F 52% 30.27 in 10.0 mi North 5.8 mph - N/A   Mostly Cloudy
3:56 PM 66.9 °F 48.0 °F 51% 30.27 in 10.0 mi North 5.8 mph - N/A   Overcast
4:56 PM 66.0 °F 48.9 °F 54% 30.27 in 10.0 mi NNW 4.6 mph - N/A   Mostly Cloudy
5:56 PM 66.9 °F 48.0 °F 51% 30.28 in 10.0 mi NNW 5.8 mph - N/A   Clear
6:56 PM 62.1 °F 53.1 °F 72% 30.29 in 10.0 mi Calm Calm - N/A   Scattered Clouds
7:56 PM 59.0 °F 53.1 °F 81% 30.31 in 10.0 mi Calm Calm - N/A   Overcast
8:56 PM 55.9 °F 53.1 °F 90% 30.33 in 10.0 mi Calm Calm - N/A   Mostly Cloudy
9:56 PM 53.1 °F 50.0 °F 89% 30.33 in 10.0 mi Calm Calm - N/A   Clear
10:56 PM 51.1 °F 50.0 °F 96% 30.35 in 10.0 mi Calm Calm - N/A   Clear
11:56 PM 50.0 °F 48.9 °F 96% 30.35 in 10.0 mi Calm Calm - N/A   Clear